FW1293 Weather Reports


time (UTC)temp
C
wind
direction
speed
KPH
gust
KPH
rain 1hr
cm
rain 24hr
cm
rain mn
cm
humidity
%
barometer
mb
20260507104511 3 15 0.0 0.0 0.00 1.73 0.00 96 1008.6
20260507103008 3 103 0.0 0.0 0.00 1.73 0.00 96 1008.6
20260507101506 3 104 0.0 3.2 0.00 1.73 0.00 96 1008.7
20260507100003 3 103 0.0 3.2 0.00 1.73 0.00 96 1008.4
20260507094600 3 26 0.0 1.6 0.00 1.73 0.00 96 1008.4
20260507093100 3 61 1.6 6.4 0.00 1.73 0.00 96 1008.5
20260507091556 3 80 0.0 0.0 0.00 1.73 0.00 97 1008.5
20260507090055 3 80 0.0 0.0 0.00 1.73 0.00 97 1008.5
20260507084555 3 120 0.0 0.0 0.00 1.73 0.00 97 1008.7
20260507083055 3 121 0.0 0.0 0.00 1.73 1.73 97 1008.5
20260507081549 3 213 0.0 3.2 0.00 1.73 1.73 97 1008.7
20260507080113 3 165 0.0 4.8 0.00 1.73 1.73 97 1008.8
20260507074547 3 113 0.0 4.8 0.00 1.73 1.73 97 1008.8
20260507073050 3 207 0.0 4.8 0.00 1.75 1.73 97 1008.4
20260507071558 2 219 0.0 4.8 0.00 1.75 1.73 96 1008.4
20260507070040 3 242 1.6 4.8 0.00 1.75 1.73 96 1008.1
20260507064542 3 178 0.0 0.0 0.00 1.75 1.73 97 1008.2
20260507063040 3 178 0.0 0.0 0.00 1.80 1.73 97 1008.2
20260507061537 3 192 0.0 0.0 0.00 1.80 1.73 97 1008.2
20260507060035 3 211 0.0 3.2 0.00 1.80 1.73 97 1008.5
20260507054533 3 212 0.0 3.2 0.00 1.80 1.73 97 1008.6
20260507053032 3 155 1.6 3.2 0.00 2.11 1.73 97 1008.8
20260507051532 3 162 0.0 3.2 0.00 2.11 1.73 97 1008.6
20260507050031 3 97 0.0 8.0 0.00 2.11 1.73 96 1008.8
20260507044623 3 211 0.0 4.8 0.00 2.11 1.73 96 1008.7
20260507043100 3 217 3.2 4.8 0.00 2.18 1.73 96 1008.5
20260507041602 3 202 0.0 4.8 0.00 2.18 1.73 96 1008.6
20260507040104 3 205 0.0 0.0 0.00 2.18 1.73 96 1008.8
20260507034558 3 205 0.0 1.6 0.00 2.18 1.73 96 1008.6
20260507033053 3 205 1.6 3.2 0.00 2.18 1.73 97 1008.4
20260507031548 3 205 0.0 3.2 0.00 2.18 1.73 97 1008.7
20260507030053 3 189 0.0 3.2 0.00 2.18 1.73 97 1008.9
20260507024547 3 98 0.0 4.8 0.03 2.18 1.73 97 1008.8
20260507023046 3 98 0.0 1.6 0.03 2.18 1.73 97 1009.0
20260507021545 3 98 0.0 3.2 0.05 2.18 1.73 97 1009.0
20260507020045 4 93 0.0 4.8 0.08 2.18 1.73 97 1008.8
20260507014542 4 182 0.0 12.9 0.08 2.16 1.70 97 1008.5
20260507013040 4 122 0.0 4.8 0.08 2.16 1.70 97 1008.9
20260507011539 4 88 1.6 8.0 0.08 2.13 1.68 97 1008.6
20260507010033 5 61 1.6 9.7 0.05 2.11 1.65 97 1008.7
20260507004531 5 88 3.2 12.9 0.05 2.08 1.63 97 1008.5
20260507003030 5 126 1.6 4.8 0.08 2.08 1.63 97 1008.0
20260507001616 5 218 1.6 4.8 0.08 2.06 1.60 97 1007.7
20260506234559 5 80 1.6 6.4 0.08 2.03 1.57 97 1007.2
20260506233054 5 152 3.2 12.9 0.05 2.01 1.55 97 1006.7
20260506231552 5 96 1.6 8.0 0.03 1.98 1.52 97 1006.6
20260506230052 5 204 1.6 8.0 0.03 1.98 1.52 97 1006.5
20260506224546 6 135 0.0 11.3 0.03 1.96 1.50 96 1006.3
20260506223042 6 128 0.0 6.4 0.03 1.96 1.50 96 1006.1
20260506221539 7 165 0.0 4.8 0.03 1.96 1.50 96 1005.9
20260506220042 7 108 0.0 4.8 0.03 1.96 1.50 96 1005.7
20260506214534 7 182 1.6 8.0 0.00 1.93 1.45 97 1005.8
20260506213034 7 211 0.0 8.0 0.00 1.96 1.45 96 1005.7
20260506211533 7 134 0.0 8.0 0.03 1.96 1.45 96 1005.8
20260506210027 8 111 0.0 6.4 0.08 1.96 1.45 96 1005.7
20260506204524 8 86 1.6 6.4 0.08 1.96 1.45 97 1005.5
20260506203030 8 215 1.6 4.8 0.13 2.11 1.45 96 1005.4
20260506201522 8 138 0.0 6.4 0.20 2.08 1.42 96 1005.5
20260506200025 8 129 0.0 9.7 0.15 2.03 1.40 96 1005.4
20260506194619 9 96 3.2 11.3 0.18 2.03 1.40 96 1005.4
20260506193047 10 113 4.8 9.7 0.13 1.98 1.35 96 1005.4
20260506191551 11 135 3.2 12.9 0.05 1.91 1.27 94 1005.3
20260506190049 12 321 1.6 8.0 0.03 1.88 1.24 95 1005.2
20260506184553 12 9 1.6 8.0 0.00 1.85 1.22 95 1005.2
20260506183043 12 302 3.2 16.1 0.05 1.85 1.22 94 1005.1
20260506181540 12 283 4.8 12.9 0.08 1.85 1.22 96 1005.2
20260506180037 12 334 1.6 6.4 0.15 1.85 1.22 96 1005.6
20260506174534 12 38 0.0 4.8 0.20 1.85 1.22 97 1005.8
20260506173042 12 36 1.6 8.0 0.25 1.80 1.17 96 1006.0
20260506171535 11 308 1.6 8.0 0.30 1.75 1.12 97 1006.0
20260506170104 11 302 3.2 9.7 0.33 1.70 1.07 97 1006.0
20260506164601 11 323 3.2 11.3 0.33 1.65 1.02 97 1006.0
20260506163126 11 315 3.2 9.7 0.28 1.55 0.91 96 1006.1
20260506161554 11 26 3.2 14.5 0.25 1.42 0.81 96 1006.3
20260506160052 11 321 3.2 14.5 0.28 1.37 0.71 96 1006.6
20260506154553 11 15 4.8 11.3 0.28 1.32 0.69 96 1006.7
20260506153020 11 52 3.2 12.9 0.25 1.24 0.61 96 1006.9
20260506151519 11 69 1.6 14.5 0.23 1.19 0.56 96 1006.9
20260506150046 11 325 3.2 12.9 0.18 1.09 0.46 96 1007.1
20260506144546 11 5 3.2 14.5 0.15 1.02 0.38 96 1007.2
20260506143044 11 351 3.2 14.5 0.18 0.99 0.36 96 1007.2
20260506141543 11 299 1.6 11.3 0.18 0.97 0.33 96 1007.3
20260506140042 11 298 3.2 16.1 0.18 0.91 0.28 95 1007.3
20260506134540 11 294 4.8 12.9 0.18 0.86 0.23 96 1007.2
20260506133036 11 348 3.2 12.9 0.15 0.81 0.18 97 1007.2
20260506131537 11 311 1.6 8.0 0.15 0.79 0.15 97 1007.4
20260506130032 10 22 0.0 6.4 0.10 0.71 0.10 97 1007.6
20260506124532 10 219 1.6 6.4 0.05 0.69 0.05 96 1007.8
20260506123028 10 69 0.0 3.2 0.03 0.66 0.03 96 1007.9
20260506121527 11 68 1.6 12.9 0.00 0.64 0.00 95 1007.7
20260506120024 10 284 9.7 33.8 0.00 0.64 0.00 97 1007.7
20260506114524 10 94 11.3 19.3 0.00 0.64 0.00 96 1007.6
20260506113020 10 96 4.8 9.7 0.00 0.64 0.00 95 1008.0
20260506111526 10 190 3.2 11.3 0.00 0.64 0.00 95 1007.8
20260506110017 10 108 0.0 8.0 0.00 0.64 0.00 94 1007.7